Weather reports worldwide

Advertisment
Drumalbin, United Kingdom (3155): temperature & dewpoint: 07.12.2019 05:00:00 - 13.12.2019 05:00:00 (GMT)Drumalbin, United Kingdom (3155): temperature -20cm & temperature -100cm: 07.12.2019 05:00:00 - 13.12.2019 05:00:00 (GMT)Drumalbin, United Kingdom (3155): wind speed & gusts: 07.12.2019 05:00:00 - 13.12.2019 05:00:00 (GMT)Drumalbin, United Kingdom (3155): wind direction: 07.12.2019 05:00:00 - 13.12.2019 05:00:00 (GMT)Drumalbin, United Kingdom (3155): reduced air pressure: 07.12.2019 05:00:00 - 13.12.2019 05:00:00 (GMT)Drumalbin, United Kingdom (3155): visibility: 07.12.2019 05:00:00 - 13.12.2019 05:00:00 (GMT)Drumalbin, United Kingdom (3155): precipitation: 07.12.2019 05:00:00 - 13.12.2019 05:00:00 (GMT)
Date & Time tt [°C] td [°C] tt -20cm [°C] tt -100cm [°C] ff [km/h] ff [kn] fx [km/h] fx [kn] dd ppp [hPa] vv [km] rr [mm]
13.12.2019 05:00:00 - - - - - - - - - - - -
13.12.2019 04:00:00 1,9 1,9 - - 13 7 - - WNW 970,1 1,5 0,0
13.12.2019 03:00:00 1,7 1,7 - - 9 5 - - WNW 970,1 0,4 0,0
13.12.2019 02:00:00 1,4 1,4 - - 11 6 - - W 969,9 0,2 0,2
13.12.2019 01:00:00 1,0 1,0 - - 8 4 - - W 970,0 0,2 0,8
13.12.2019 00:00:00 1,3 1,3 - - 5 3 - - WNW 970,1 0,1 1,0
12.12.2019 23:00:00 1,4 1,3 - - 2 1 - - NNW 970,5 2,0 0,4
12.12.2019 22:00:00 1,4 1,3 - - 4 2 - - NE 970,8 3,4 0,2
12.12.2019 21:00:00 1,6 1,5 - - 8 4 - - E 971,6 4,2 0,2
12.12.2019 20:00:00 1,8 1,6 - - 5 3 - - E 972,5 4,1 0,0
12.12.2019 19:00:00 1,8 1,7 - - 8 4 - - NE 973,8 3,9 0,0
12.12.2019 18:00:00 2,1 1,9 - - 9 5 - - ENE 974,6 6 0,2
12.12.2019 17:00:00 2,4 2,1 - - 9 5 - - ENE 975,8 6 0,2
12.12.2019 16:00:00 2,8 2,2 - - 9 5 - - E 976,9 6 0,2
12.12.2019 15:00:00 3,3 1,9 - - 5 3 - - SE 978,3 24 0,0
12.12.2019 14:00:00 3,6 1,7 - - 8 4 - - SE 979,5 70 0,0
12.12.2019 13:00:00 3,6 1,5 - - 13 7 - - SSE 980,7 75 0,0
12.12.2019 12:00:00 4,5 2,4 - - 9 5 52 28 SE 982,1 75 0,0
12.12.2019 11:00:00 2,5 1,4 - - 37 20 54 29 S 983,2 50 0,0
12.12.2019 10:00:00 2,3 1,3 - - 37 20 50 27 S 984,6 65 0,0
12.12.2019 09:00:00 1,9 1,1 6,0 7,0 24 13 - - S 985,8 15 0,0
12.12.2019 08:00:00 2,0 0,8 - - 28 15 - - S 986,9 40 0,0
12.12.2019 07:00:00 1,6 0,6 - - 24 13 - - SSW 987,9 28 0,0
12.12.2019 06:00:00 1,3 0,2 - - 24 13 - - SSW 988,8 24 0,0
12.12.2019 05:00:00 1,1 -0,2 - - 21 11 - - SSW 989,8 28 0,0
12.12.2019 04:00:00 1,0 -0,2 - - 22 12 - - SSW 990,9 28 0,0
12.12.2019 03:00:00 0,8 -0,3 - - 21 11 - - SSW 992,0 29 0,0
12.12.2019 02:00:00 1,0 -0,4 - - 26 14 - - SSW 992,6 30 0,0
12.12.2019 01:00:00 1,5 0,1 - - 28 15 46 25 SW 993,5 30 0,0
12.12.2019 00:00:00 1,8 0,6 - - 29 16 - - SW 993,9 30 0,0
11.12.2019 23:00:00 2,1 0,8 - - 26 14 - - SW 994,3 29 0,4
11.12.2019 22:00:00 1,3 1,0 - - 18 10 - - SW 994,8 9 1,4
11.12.2019 21:00:00 2,2 1,5 - - 22 12 - - WSW 995,0 6 0,8
11.12.2019 20:00:00 2,2 1,4 - - 21 11 - - SW 994,6 35 0,0
11.12.2019 19:00:00 1,4 1,0 - - 22 12 - - W 995,0 10 1,0
11.12.2019 18:00:00 1,9 1,1 - - 24 13 - - WSW 994,7 55 0,8
11.12.2019 17:00:00 1,8 0,8 - - 18 10 - - W 994,7 2,0 1,0
11.12.2019 16:00:00 2,5 1,2 - - 24 13 48 26 SW 994,1 45 0,0
11.12.2019 15:00:00 3,0 1,1 - - 26 14 48 26 SW 993,7 50 0,0
11.12.2019 14:00:00 3,4 0,7 - - 24 13 - - SW 993,7 60 0,0
11.12.2019 13:00:00 3,7 0,7 - - 26 14 - - SW 993,5 70 0,0
11.12.2019 12:00:00 3,5 0,8 - - 29 16 57 31 SW 993,9 65 0,0
11.12.2019 11:00:00 3,3 0,4 - - 37 20 54 29 SW 993,9 65 0,0
11.12.2019 10:00:00 2,8 0,3 - - 35 19 59 32 SW 994,1 50 0,0
11.12.2019 09:00:00 2,8 0,6 6,2 7,0 37 20 57 31 SW 994,0 50 0,0
11.12.2019 08:00:00 2,8 0,5 - - 37 20 54 29 SW 994,2 40 0,0
11.12.2019 07:00:00 3,0 1,2 - - 34 18 50 27 SW 994,3 14 0,0
11.12.2019 06:00:00 2,9 0,7 - - 29 16 50 27 SW 995,1 30 0,0
11.12.2019 05:00:00 2,7 0,7 - - 34 18 52 28 SW 995,5 29 0,0
11.12.2019 04:00:00 2,6 1,1 - - 31 17 54 29 SW 995,9 21 0,0
11.12.2019 03:00:00 3,3 1,6 - - 26 14 - - SW 996,2 17 0,2
11.12.2019 02:00:00 3,3 1,9 - - 24 13 55 30 SW 996,0 17 0,6
11.12.2019 01:00:00 2,1 1,1 - - 21 11 80 43 W 996,5 1,7 1,0
11.12.2019 00:00:00 1,9 1,2 - - 24 13 59 32 WSW 995,5 45 2,2
10.12.2019 23:00:00 2,3 1,4 - - 37 20 68 37 WSW 994,7 35 0,8
10.12.2019 22:00:00 3,4 1,7 - - 39 21 74 40 WSW 993,2 40 1,2
10.12.2019 21:00:00 4,0 2,5 - - 41 22 61 33 W 992,6 11 0,2
10.12.2019 20:00:00 3,3 1,6 - - 41 22 59 32 WSW 991,6 70 2,2
10.12.2019 19:00:00 3,5 2,1 - - 39 21 74 40 WSW 989,8 40 1,4
10.12.2019 18:00:00 4,4 3,1 - - 41 22 67 36 W 988,9 2,5 1,6
10.12.2019 17:00:00 5,0 3,7 - - 41 22 59 32 W 987,3 5 1,4
10.12.2019 16:00:00 5,3 4,0 - - 41 22 76 41 WNW 986,6 8 0,8
10.12.2019 15:00:00 7,4 6,2 - - 52 28 74 40 WNW 984,7 5 3,4
10.12.2019 14:00:00 10,7 10,0 - - 54 29 87 47 SSW 983,5 1,7 0,6
10.12.2019 13:00:00 10,1 9,2 - - 61 33 89 48 SSW 985,5 3,0 1,4
10.12.2019 12:00:00 9,9 9,0 - - 61 33 93 50 SSW 987,7 4,1 0,4
10.12.2019 11:00:00 9,1 8,2 - - 59 32 94 51 SSW 990,1 1,7 2,6
10.12.2019 10:00:00 7,9 7,1 - - 67 36 94 51 S 992,0 3,7 1,6
10.12.2019 09:00:00 7,9 7,0 6,2 7,0 65 35 91 49 S 994,6 6 2,0
10.12.2019 08:00:00 7,2 6,5 - - 59 32 87 47 S 997,7 3,1 1,6
10.12.2019 07:00:00 6,4 5,5 - - 67 36 106 57 SSW 999,5 4,9 0,6
10.12.2019 06:00:00 6,5 5,2 - - 74 40 96 52 S 1001,2 10 0,4
10.12.2019 05:00:00 6,5 5,1 - - 54 29 87 47 SSW 1004,1 22 0,0
10.12.2019 04:00:00 6,4 5,1 - - 50 27 85 46 SSW 1006,6 9 0,0
10.12.2019 03:00:00 6,0 3,6 - - 52 28 72 39 SSW 1008,8 27 0,0
10.12.2019 02:00:00 5,5 3,4 - - 39 21 68 37 SSW 1011,6 30 0,0
10.12.2019 01:00:00 4,9 3,3 - - 48 26 65 35 SSW 1012,6 24 0,0
10.12.2019 00:00:00 3,8 2,7 - - 29 16 48 26 SSW 1014,6 21 0,0
09.12.2019 23:00:00 3,5 1,6 - - 37 20 46 25 SSW 1016,2 25 0,0
09.12.2019 22:00:00 2,4 0,8 - - 26 14 - - SSW 1017,2 28 0,0
09.12.2019 21:00:00 2,5 0,3 - - 21 11 - - SSW 1017,3 30 0,0
09.12.2019 20:00:00 2,1 0,2 - - 24 13 - - SSW 1018,6 30 0,0
09.12.2019 19:00:00 1,8 0,2 - - 21 11 - - SSW 1019,0 30 0,0
09.12.2019 18:00:00 1,8 0,2 - - 16 9 - - SW 1018,6 30 0,0
09.12.2019 17:00:00 1,8 -0,2 - - 13 7 - - SW 1018,2 30 0,0
09.12.2019 16:00:00 2,1 -0,1 - - 11 6 - - WSW 1017,8 30 0,0
09.12.2019 15:00:00 3,4 0,4 - - 11 6 - - W 1016,3 40 0,0
09.12.2019 14:00:00 4,2 0,9 - - 13 7 - - W 1015,9 40 0,0
09.12.2019 13:00:00 3,9 0,9 - - 16 9 - - WNW 1015,2 40 0,0
09.12.2019 12:00:00 3,4 0,7 - - 15 8 - - WNW 1014,3 50 0,0
09.12.2019 11:00:00 2,5 0,7 - - 11 6 - - WNW 1013,2 45 0,0
09.12.2019 10:00:00 1,7 0,4 - - 5 3 - - W 1011,9 45 0,0
09.12.2019 09:00:00 1,5 0,0 6,5 7,0 13 7 - - WNW 1009,7 55 0,0
09.12.2019 08:00:00 1,5 0,8 - - 15 8 - - NW 1007,4 55 0,2
09.12.2019 07:00:00 2,5 1,4 - - 22 12 - - NNW 1005,1 11 0,4
09.12.2019 06:00:00 2,6 1,3 - - 16 9 - - NW 1002,1 60 0,0
09.12.2019 05:00:00 3,4 1,1 - - 28 15 - - NNW 999,3 65 0,0
09.12.2019 04:00:00 3,4 2,1 - - 24 13 - - NNW 997,0 75 0,0
09.12.2019 03:00:00 4,2 2,4 - - 28 15 - - NW 993,9 75 0,0
09.12.2019 02:00:00 3,6 2,7 - - 15 8 - - NW 990,5 50 0,0
09.12.2019 01:00:00 3,4 2,4 - - 16 9 - - WNW 987,7 55 0,0
09.12.2019 00:00:00 3,2 2,7 - - 15 8 48 26 W 984,8 50 0,0
08.12.2019 23:00:00 3,0 2,3 - - 15 8 - - SW 982,8 65 0,2
08.12.2019 22:00:00 3,2 2,0 - - 31 17 52 28 W 981,3 17 1,0
08.12.2019 21:00:00 4,1 3,1 - - 34 18 52 28 W 980,6 6 1,4
08.12.2019 20:00:00 4,1 3,2 - - 31 17 52 28 WSW 979,8 3,4 2,0
08.12.2019 19:00:00 3,6 2,4 - - 37 20 61 33 WSW 979,6 75 1,4
08.12.2019 18:00:00 3,7 2,8 - - 34 18 65 35 WSW 979,5 5 2,4
08.12.2019 17:00:00 3,9 2,5 - - 37 20 72 39 WSW 979,6 50 0,4
08.12.2019 16:00:00 4,6 2,0 - - 42 23 76 41 WSW 980,1 45 0,0
08.12.2019 15:00:00 4,7 2,4 - - 48 26 80 43 WSW 980,7 45 0,0
08.12.2019 14:00:00 4,3 3,2 - - 42 23 70 38 WSW 981,9 5 0,4
08.12.2019 13:00:00 4,8 3,0 - - 39 21 72 39 WSW 982,2 40 0,2
08.12.2019 12:00:00 4,6 2,6 - - 54 29 78 42 WSW 983,0 20 0,0
08.12.2019 11:00:00 5,0 2,5 - - 46 25 76 41 WSW 983,9 35 0,0
08.12.2019 10:00:00 4,7 2,7 - - 52 28 72 39 WSW 984,1 29 0,0
08.12.2019 09:00:00 4,3 2,9 6,7 7,0 41 22 74 40 WSW 984,8 30 0,2
08.12.2019 08:00:00 4,9 3,1 - - 46 25 72 39 WSW 984,8 2,2 0,4
08.12.2019 07:00:00 5,0 2,9 - - 52 28 68 37 WSW 985,2 5 0,0
08.12.2019 06:00:00 5,0 2,6 - - 42 23 65 35 W 985,4 30 0,0
08.12.2019 05:00:00 4,4 3,0 - - 42 23 78 42 WSW 985,5 50 0,4
08.12.2019 04:00:00 5,4 3,3 - - 50 27 68 37 W 985,6 3,7 0,2
08.12.2019 03:00:00 6,7 5,0 - - 42 23 83 45 W 985,1 35 1,0
08.12.2019 02:00:00 7,3 6,6 - - 34 18 50 27 WSW 984,0 5 0,2
08.12.2019 01:00:00 8,3 7,4 - - 44 24 93 50 W 984,5 5 0,8
08.12.2019 00:00:00 9,5 8,8 - - 46 25 74 40 SW 984,1 1,5 1,2
07.12.2019 23:00:00 9,0 8,3 - - 50 27 78 42 SSW 985,6 2,8 3,8
07.12.2019 22:00:00 8,8 7,9 - - 55 30 81 44 SSW 987,2 3,3 2,2
07.12.2019 21:00:00 9,1 8,2 - - 52 28 80 43 SSW 989,2 3,8 1,4
07.12.2019 20:00:00 9,2 8,6 - - 42 23 61 33 SSW 992,1 4,9 1,0
07.12.2019 19:00:00 9,3 8,6 - - 42 23 61 33 SW 994,3 10 0,2
07.12.2019 18:00:00 9,0 8,3 - - 44 24 59 32 SSW 996,4 30 0,4
07.12.2019 17:00:00 8,8 8,0 - - 41 22 55 30 SW 997,9 11 1,6
07.12.2019 16:00:00 8,6 7,9 - - 37 20 57 31 SW 999,3 5 0,2
07.12.2019 15:00:00 8,1 7,5 - - 35 19 55 30 SSW 1000,1 13 1,6
07.12.2019 14:00:00 7,7 7,2 - - 37 20 50 27 SW 1001,3 2,8 0,6
07.12.2019 13:00:00 7,3 6,6 - - 37 20 48 26 SSW 1002,3 17 0,0
07.12.2019 12:00:00 7,3 6,7 - - 26 14 - - SW 1003,9 6 0,2
07.12.2019 11:00:00 7,1 6,6 - - 26 14 - - SW 1004,9 75 0,0
07.12.2019 10:00:00 6,7 6,4 - - 24 13 - - SW 1004,9 2,5 0,0
07.12.2019 09:00:00 6,6 6,4 6,4 7,0 22 12 - - WSW 1005,9 2,1 0,2
07.12.2019 08:00:00 6,7 6,3 - - 22 12 - - WSW 1005,3 2,0 0,2
07.12.2019 07:00:00 6,7 6,0 - - 21 11 - - WSW 1005,5 70 0,0
07.12.2019 06:00:00 6,7 5,8 - - 16 9 - - WSW 1005,5 70 0,0
07.12.2019 05:00:00 6,8 5,9 - - 22 12 - - W 1005,2 40 0,0

tt = temperature
td = dewpoint
tt -20cm = temperature -20cm
tt -100cm = temperature -100cm
ff = wind speed
fx = gusts
dd = wind direction
ppp = reduced air pressure
vv = visibility
rr = precipitation

Next stations